Weather History for Shelbyville, IN

Change the Weather History Date:

Wednesday, May 22, 2013

  Actual Average Record
Temperature  
Mean Temperature 70 °F 65 °F  
Max Temperature 77 °F 75 °F 87 °F (2007)
Min Temperature 63 °F 55 °F 35 °F (2002)
Degree Days  
Heating Degree Days 0 3  
Month to date heating degree days 55 115  
Since 1 July heating degree days 5048 5375  
Cooling Degree Days 5 3  
Month to date cooling degree days 98 37  
Year to date cooling degree days 114 50  
Growing Degree Days 20 (Base 50)    
Moisture  
Dew Point 62 °F    
Average Humidity 70    
Maximum Humidity 90    
Minimum Humidity 50    
Precipitation  
Precipitation 0.24 in 0.16 in 0.43 in (1999)
Month to date precipitation 1.66 3.97  
Year to date precipitation 11.39 16.47  
Sea Level Pressure  
Sea Level Pressure 29.76 in    
Wind  
Wind Speed 13 mph (SSW)    
Max Wind Speed 26 mph    
Max Gust Speed 43 mph    
Visibility 9 miles    
Events Rain , Thunderstorm    
T = Trace of Precipitation, MM = Missing Value Source: NWS Daily Summary

Daily Weather History Graph

Daily Weather History Graph

Search for Another Location

Airport:

Trip Planner

Search our weather history database for the weather conditions in past years. The results will help you decide how hot, cold, wet, or windy it might be!

Date:

Astronomy

May. 22, 2013 Rise Set
Actual Time 6:23 AM EDT 8:57 PM EDT
Civil Twilight 5:52 AM EDT 9:28 PM EDT
Nautical Twilight 5:13 AM EDT 10:07 PM EDT
Astronomical Twilight 4:30 AM EDT 10:50 PM EDT
Moon 6:19 PM EDT (5/22) 4:26 AM EDT (5/22)
Length of Visible Light 15h 36m
Length of Day
14h 33m
Waxing Gibbous, 91% of the Moon is Illuminated
May 22
Waxing Gibbous
May 25
Full
May 31
Last Quarter
Jun 8
New
Jun 16
First Quarter

Hourly Weather History & Observations

Time (EDT) Temp. Dew Point Humidity Pressure Visibility Wind Dir Wind Speed Gust Speed Precip Events Conditions
12:53 AM 69.1 °F 64.9 °F 87% 29.78 in 10.0 mi SSE 4.6 mph - 0.06 in   Mostly Cloudy
1:53 AM 70.0 °F 64.0 °F 81% 29.77 in 10.0 mi South 11.5 mph - N/A   Partly Cloudy
2:53 AM 70.0 °F 64.0 °F 81% 29.76 in 10.0 mi South 11.5 mph - N/A   Scattered Clouds
3:53 AM 69.1 °F 64.0 °F 84% 29.75 in 10.0 mi South 9.2 mph - N/A   Overcast
4:29 AM 69.8 °F 62.6 °F 78% 29.77 in 10.0 mi South 10.4 mph - N/A   Overcast
4:37 AM 69.8 °F 62.6 °F 78% 29.77 in 10.0 mi South 11.5 mph - N/A   Overcast
4:53 AM 69.1 °F 63.0 °F 81% 29.75 in 10.0 mi South 9.2 mph - 0.00 in Rain Light Rain
5:53 AM 68.0 °F 63.0 °F 84% 29.75 in 10.0 mi South 10.4 mph - 0.00 in   Scattered Clouds
6:19 AM 68.0 °F 62.6 °F 83% 29.77 in 10.0 mi South 15.0 mph - N/A   Mostly Cloudy
6:38 AM 68.0 °F 62.6 °F 83% 29.77 in 10.0 mi South 13.8 mph - N/A   Overcast
6:53 AM 68.0 °F 62.1 °F 81% 29.75 in 10.0 mi South 12.7 mph - N/A   Overcast
7:08 AM 68.0 °F 62.6 °F 83% 29.77 in 10.0 mi South 12.7 mph - N/A   Overcast
7:53 AM 68.0 °F 62.1 °F 81% 29.75 in 10.0 mi South 12.7 mph - N/A   Overcast
8:53 AM 66.9 °F 63.0 °F 87% 29.77 in 2.5 mi South 18.4 mph 21.9 mph 0.01 in Rain Heavy Rain
9:04 AM 66.2 °F 62.6 °F 88% 29.78 in 6.0 mi SSW 12.7 mph 21.9 mph 0.01 in Rain Light Rain
9:53 AM 68.0 °F 64.0 °F 87% 29.74 in 10.0 mi SSE 15.0 mph - 0.01 in   Overcast
10:00 AM 69.8 °F 64.4 °F 83% 29.77 in 10.0 mi South 12.7 mph - N/A   Overcast
10:24 AM 71.6 °F 64.4 °F 78% 29.77 in 10.0 mi South 16.1 mph - N/A   Mostly Cloudy
10:33 AM 71.6 °F 64.4 °F 78% 29.77 in 10.0 mi South 17.3 mph - N/A   Scattered Clouds
10:42 AM 71.6 °F 64.4 °F 78% 29.77 in 10.0 mi South 15.0 mph - N/A   Mostly Cloudy
10:53 AM 73.0 °F 64.9 °F 76% 29.75 in 10.0 mi South 13.8 mph - N/A   Scattered Clouds
11:23 AM 73.4 °F 64.4 °F 73% 29.77 in 10.0 mi SSW 16.1 mph - N/A   Mostly Cloudy
11:49 AM 73.4 °F 62.6 °F 69% 29.77 in 10.0 mi SSW 16.1 mph 23.0 mph N/A   Mostly Cloudy
11:53 AM 73.9 °F 62.1 °F 66% 29.75 in 10.0 mi SSW 17.3 mph - N/A   Mostly Cloudy
12:53 PM 73.9 °F 61.0 °F 64% 29.75 in 10.0 mi SSW 18.4 mph 26.5 mph N/A   Overcast
1:53 PM 73.0 °F 60.1 °F 64% 29.76 in 10.0 mi SSW 18.4 mph 29.9 mph 0.00 in   Overcast
2:53 PM 72.0 °F 61.0 °F 68% 29.76 in 10.0 mi SW 20.7 mph 26.5 mph N/A   Overcast
3:14 PM 71.6 °F 62.6 °F 73% 29.78 in 10.0 mi SW 17.3 mph 26.5 mph 0.00 in   Overcast
3:53 PM 72.0 °F 61.0 °F 68% 29.75 in 10.0 mi SW 13.8 mph 25.3 mph 0.00 in   Overcast
4:53 PM 75.9 °F 59.0 °F 56% 29.71 in 10.0 mi SSW 19.6 mph - N/A   Overcast
5:53 PM 75.0 °F 60.1 °F 60% 29.70 in 10.0 mi SSW 15.0 mph - N/A   Clear
6:53 PM 77.0 °F 57.9 °F 52% 29.70 in 10.0 mi WSW 15.0 mph 23.0 mph N/A   Mostly Cloudy
7:53 PM 73.0 °F 60.1 °F 64% 29.73 in 10.0 mi SW 9.2 mph - N/A   Scattered Clouds
8:53 PM 71.1 °F 60.1 °F 68% 29.73 in 10.0 mi SSW 6.9 mph - N/A   Mostly Cloudy
9:53 PM 69.1 °F 59.0 °F 70% 29.74 in 10.0 mi South 5.8 mph - N/A   Overcast
10:08 PM 69.8 °F 59.0 °F 68% 29.76 in 10.0 mi SW 8.1 mph - N/A Thunderstorm Thunderstorm
10:13 PM 66.2 °F 59.0 °F 78% 29.78 in 1.8 mi West 23.0 mph 42.6 mph 0.14 in Rain , Thunderstorm Light Thunderstorms and Rain
10:24 PM 64.4 °F 57.2 °F 77% 29.78 in 3.0 mi SW 6.9 mph - 0.22 in Rain , Thunderstorm Light Thunderstorms and Rain
10:51 PM 64.4 °F 59.0 °F 83% 29.78 in 10.0 mi South 5.8 mph - 0.22 in   Overcast
10:53 PM 64.0 °F 59.0 °F 84% 29.77 in 10.0 mi South 5.8 mph - 0.22 in   Overcast
11:53 PM 63.0 °F 59.0 °F 87% 29.77 in 10.0 mi Calm Calm - N/A   Partly Cloudy